SCP
1 1 0 0 0 0 0 0 0 0 0 0 0 0 0 0 0 0 0 0 0 0 0 0 0 0 0 0 0 0 0 0 0 0 0 0 0 0
1 1 0 0 0 0 0 0 0 0 0 0 0 0 0 0 0 0 0 0 0 0 0 0 0 0 0 0 0 0 0 0 0 0 0 0 0 0
1 1 0 0 0 0 0 0 0 0 0 0 0 0 0 0 0 0 0 0 0 0 0 0 0 0 0 0 0 0 0 0 0 0 0 0 0 0
1 1 0 0 0 0 0 0 0 0 0 0 0 0 0 0 0 0 0 0 0 0 0 0 0 0 0 0 0 0 0 0 0 0 0 0 0 0
1 1 0 0 0 0 0 0 0 0 0 0 0 0 0 0 0 0 0 0 0 0 0 0 0 0 0 0 0 0 0 0 0 0 0 0 0 0
2 1 0 0 0 0 0 0 0 0 0 0 0 0 0 0 0 0 0 0 0 0 0 0 0 0 0 0 0 0 0 0 0 0 0 0 0 0
1 1 0 0 0 0 0 0 0 0 0 0 0 0 0 0 0 0 0 0 0 0 0 0 0 0 0 0 0 0 0 0 0 0 0 0 0 0
1 1 0 0 0 0 0 0 0 0 0 0 0 0 0 0 0 0 0 0 0 0 0 0 0 0 0 0 0 0 0 0 0 0 0 0 0 0
1 0 0 0 0 0 0 0 0 0 0 0 0 0 0 0 0 0 0 0 0 0 0 0 0 0 0 0 0 0 0 0 0 0 0 0 0 0
0 0 0 0 0 0 0 0 0 0 0 0 0 0 0 0 0 0 0 0 0 0 0 0 0 0 0 0 0 0 0 0 0 0 0 0 0 0
0 0 0 0 0 0 0 0 0 0 0 0 0 0 0 0 0 0 0 0 0 0 0 0 0 0 0 0 0 0 0 0 0 0 0 0 0 0
0 0 0 0 0 0 0 0 0 0 0 0 0 0 0 0 0 0 0 0 0 0 0 0 0 0 0 0 0 0 0 0 0 0 0 0 0 0
0 0 0 0 0 0 0 0 0 0 0 0 0 0 0 0 0 0 0 0 0 0 0 0 0 0 0 0 0 0 0 0 0 0 0 0 0 0
0 0 0 0 0 0 0 0 0 0 0 0 0 0 0 0 0 0 0 0 0 0 0 0 0 0 0 0 0 0 0 0 0 0 0 0 0 0
0 0 0 0 0 0 0 0 0 0 0 0 0 0 0 0 0 0 0 0 0 0 0 0 0 0 0 0 0 0 0 0 0 0 0 0 0 0
0 0 0 0 0 0 0 0 0 0 0 0 0 0 0 0 0 0 0 0 0 0 0 0 0 0 0 0 0 0 0 0 0 0 0 0 0 0
0 0 0 0 0 0 0 0 0 0 0 0 0 0 0 0 0 0 0 0 0 0 0 0 0 0 0 0 0 0 0 0 0 0 0 0 0 0
0 0 0 0 0 0 0 0 0 0 0 0 0 0 0 0 0 0 0 0 0 0 0 0 0 0 0 0 0 0 0 0 0 0 0 0 0 0
0 0 0 0 0 0 0 0 0 0 0 0 0 0 0 0 0 0 0 0 0 0 0 0 0 0 0 0 0 0 0 0 0 0 0 0 0 0
0 0 0 0 0 0 0 0 0 0 0 0 0 0 0 0 0 0 0 0 0 0 0 0 0 0 0 0 0 0 0 0 0 0 0 0 0 0
0 0 0 0 0 0 0 0 0 0 0 0 0 0 0 0 0 0 0 0 0 0 0 0 0 0 0 0 0 0 0 0 0 0 0 0 0 0
0 0 0 0 0 0 0 0 0 0 0 0 0 0 0 0 0 0 0 0 0 0 0 0 0 0 0 0 0 0 0 0 0 0 0 0 0 0
0 0 0 0 0 0 0 0 0 0 0 0 0 0 0 0 0 0 0 0 0 0 0 0 0 0 0 0 0 0 0 0 0 0 0 0 0 0
Wind_Speed
3 3 2 1 1 2 3 4 5 3 2 2 1 2 2 3 5 4 4 8 9 9 9 9 9 9 9 8 8 8 8 8 8 8 8 9 9 10
2 3 2 1 2 2 2 2 3 4 3 3 3 2 2 3 6 4 5 8 10 10 11 11 11 11 10 10 10 10 10 10 10 10 10 10 10 10
2 3 3 3 2 2 2 2 2 3 3 2 1 1 1 2 2 3 4 4 5 10 11 11 11 12 12 12 11 11 11 11 11 11 11 11 11 11
4 3 3 3 3 2 2 2 2 2 4 2 1 1 2 3 2 3 3 4 4 8 11 12 12 13 12 12 12 12 12 12 12 12 12 12 12 13
5 5 4 4 3 2 2 2 1 2 2 3 2 1 1 1 1 2 3 3 4 6 8 10 11 11 12 12 13 13 13 13 13 13 13 13 13 14
5 5 5 5 5 4 3 3 2 2 2 2 1 1 2 2 0 1 3 2 3 3 4 4 6 9 11 12 12 13 13 13 13 14 14 14 14 14
5 5 5 7 8 6 4 4 4 2 2 2 1 1 1 1 2 2 2 3 3 2 2 3 3 3 5 8 10 12 12 13 13 13 14 14 14 15
6 5 5 6 8 9 9 9 8 5 4 3 2 3 3 3 2 2 2 1 3 3 1 4 2 4 5 4 8 11 12 12 13 13 13 14 14 15
7 5 5 5 7 5 6 7 7 8 9 6 5 5 4 5 3 3 3 4 5 4 1 4 3 4 5 6 9 11 11 11 11 12 13 13 13 14
7 7 6 5 6 6 5 5 5 5 7 6 6 6 6 5 5 5 4 4 5 4 3 4 4 4 5 5 8 10 10 10 11 11 12 13 13 13
7 7 7 6 9 10 6 6 5 5 7 10 10 10 10 10 6 2 3 2 4 4 3 4 4 3 4 5 6 9 10 11 11 12 13 13 13 12
4 5 8 8 9 10 7 6 7 6 4 4 5 7 7 8 9 7 6 5 4 4 3 3 3 2 4 4 4 4 5 9 12 13 13 13 13 6
5 4 5 10 11 11 9 7 9 6 4 4 4 4 4 4 4 5 6 6 5 6 4 3 3 3 4 4 4 4 4 5 5 7 10 12 13 8
6 5 5 9 9 9 8 8 9 6 2 3 3 4 4 5 4 4 5 7 7 8 6 4 4 4 4 5 5 4 4 5 5 6 6 8 10 12
5 6 7 8 8 6 8 8 6 3 3 3 4 5 4 4 3 3 4 4 5 7 7 6 6 5 4 5 6 5 5 5 5 5 5 6 6 5
3 3 5 5 4 4 4 4 4 4 4 4 4 4 3 2 3 3 3 3 3 5 5 5 6 5 5 6 6 7 5 5 4 5 5 6 6 5
4 2 1 1 2 1 1 2 2 2 3 3 3 3 3 3 4 3 3 3 3 4 5 4 4 4 6 6 6 7 6 6 6 6 5 7 7 7
6 3 4 3 3 3 3 2 2 3 3 3 3 4 4 4 4 3 3 3 4 5 5 4 3 3 4 5 8 7 6 6 6 6 5 6 9 7
4 3 4 4 4 3 3 3 3 3 3 3 3 3 3 3 3 3 3 3 4 5 5 4 3 3 5 7 6 7 6 7 6 6 5 6 8 8
3 3 3 3 3 3 3 3 2 2 2 2 2 2 2 3 3 3 3 4 4 4 4 4 3 4 5 7 7 7 8 7 6 7 7 6 7 9
2 2 2 2 2 2 2 2 1 1 1 1 2 2 2 2 2 3 3 4 4 3 5 5 6 7 5 3 5 7 6 8 9 7 7 6 7 6
2 2 1 1 1 1 1 1 1 1 1 1 1 1 2 2 3 3 3 3 3 4 5 5 5 4 3 4 7 8 9 8 9 12 13 11 6 6
2 1 1 1 0 0 0 0 1 0 0 1 1 2 2 2 3 3 3 3 4 4 5 5 5 4 4 5 7 8 10 10 7 7 8 10 13 16
Wind_Direction
143 138 133 138 132 138 144 147 145 156 240 261 255 236 207 193 201 195 211 225 228 233 237 242 246 247 249 252 255 258 259 261 263 266 268 270 271 272
150 135 128 130 103 105 129 138 142 149 188 238 236 231 202 199 201 205 226 237 240 244 246 248 250 250 250 251 253 255 257 259 261 261 262 263 265 267
155 150 154 143 117 104 101 115 133 136 154 246 259 244 182 207 205 231 244 243 249 250 251 253 255 254 253 253 254 255 256 258 260 260 262 263 264 265
179 162 171 152 135 129 114 114 134 148 146 175 251 250 225 225 225 242 251 245 245 257 255 255 257 258 258 258 257 257 258 258 260 261 261 262 262 263
185 179 180 159 158 158 146 139 144 131 128 147 209 252 263 258 251 271 272 275 267 263 259 255 258 262 262 262 262 262 262 262 261 261 261 261 262 263
192 188 184 178 179 176 168 167 153 133 129 139 179 251 266 283 180 266 296 291 286 291 289 278 272 273 272 271 269 266 265 264 263 262 261 261 261 260
197 196 195 194 191 185 176 174 158 148 145 149 184 221 263 262 241 236 255 289 290 273 290 289 284 283 281 275 270 267 265 264 263 263 264 263 262 261
196 204 208 200 199 197 190 182 173 169 176 176 192 208 233 232 230 225 231 278 289 275 254 281 268 274 273 266 270 272 271 268 267 267 268 268 267 265
195 197 208 203 193 192 200 202 205 205 191 180 195 214 219 220 208 228 227 226 240 251 228 277 274 271 271 275 276 277 276 275 274 274 273 271 269 268
195 195 201 206 202 193 196 208 224 225 214 202 206 219 222 220 206 213 226 246 263 258 201 252 270 265 275 278 279 278 280 280 280 279 279 277 276 275
203 199 197 204 213 202 193 208 232 249 243 223 222 233 240 239 223 211 236 241 272 273 215 218 257 269 275 272 274 278 281 284 284 282 279 277 276 279
210 211 208 208 212 203 196 201 222 236 236 244 244 255 254 253 238 214 215 221 241 267 244 210 249 258 289 276 271 276 281 279 279 278 277 277 279 280
205 217 222 216 217 215 206 209 223 222 221 233 251 263 265 259 251 228 214 211 221 241 237 196 232 231 233 272 281 270 264 271 279 277 277 277 276 267
207 213 216 213 215 218 214 221 225 220 221 237 252 258 260 262 258 247 235 228 228 238 247 212 226 238 250 266 273 275 272 265 263 268 271 278 275 270
212 210 210 214 216 221 224 224 219 207 206 228 247 255 255 260 267 270 268 252 248 250 255 238 233 246 239 251 262 262 274 274 261 262 269 267 268 269
219 207 207 207 205 214 224 226 213 206 207 227 243 256 263 264 262 258 265 274 278 282 269 254 246 241 250 256 259 267 262 262 270 269 268 269 267 259
173 161 170 183 207 222 225 223 209 201 215 228 233 250 256 257 260 254 248 249 252 270 283 283 265 250 244 249 262 264 266 267 267 272 272 277 274 266
155 177 199 205 211 210 210 221 221 221 224 223 228 237 249 257 265 266 253 250 261 267 272 277 291 307 303 271 236 253 263 266 272 270 261 272 281 276
161 192 203 208 212 212 213 214 223 228 225 226 233 238 245 254 258 264 264 263 267 270 272 273 271 268 287 291 276 239 257 276 278 277 266 259 271 276
189 197 205 208 207 209 214 220 231 240 235 234 236 242 245 250 258 264 264 265 271 275 282 282 267 256 260 274 281 280 258 256 268 276 279 275 269 271
184 189 193 196 202 209 218 227 233 247 245 232 238 246 252 254 266 271 272 275 273 274 281 280 270 269 267 274 283 283 276 258 254 262 275 283 288 286
156 171 182 189 194 203 210 209 206 243 270 264 269 276 278 272 270 273 270 273 271 272 278 283 293 297 281 275 282 287 292 294 282 270 260 250 262 272
123 121 111 103 111 136 157 138 132 194 278 294 296 290 290 285 279 272 273 273 278 284 291 295 297 290 283 279 282 287 290 295 298 299 292 281 270 264